Regional Weather Roundup
Issued by NWS

Home | Current Version | Previous Version | Graphics & Text | Print | Product List | Glossary On
Versions: 1 2 3 4 5 6 7 8 9 10 11 12 13 14 15 16 17 18 19 20 21 22 23 24 25 26 27 28 29 30 31 32 33 34 35 36 37 38 39 40 41 42 43 44 45 46 47 48 49 50
000
ASUS43 KBIS 240802
RWRND

NORTH DAKOTA REGIONAL WEATHER ROUNDUP
NATIONAL WEATHER SERVICE BISMARCK ND
300 AM CDT MON JUL 24 2017

NOTE: "FAIR" INDICATES FEW OR NO CLOUDS BELOW 12,000 FEET WITH NO
SIGNIFICANT WEATHER AND/OR OBSTRUCTIONS TO VISIBILITY.


NDZ001>003-009>011-017-240900-
NORTHWEST NORTH DAKOTA

CITY           SKY/WX    TMP DP  RH WIND       PRES   REMARKS
WILLISTON      CLEAR     75  56  51 S10       29.82S
MINOT          CLEAR     67  57  70 S8        29.86F
MINOT AFB      CLEAR     62  58  87 S7        29.85F
$$

NDZ018>021-031>035-040>046-240900-
SOUTHWEST NORTH DAKOTA

CITY           SKY/WX    TMP DP  RH WIND       PRES   REMARKS
BISMARCK       CLEAR     67  60  78 S8        29.95R
DICKINSON      PTCLDY    67  54  63 S16G22    29.90S
GARRISON         N/A     63  57  81 SE7       29.90F
HETTINGER ARPT CLOUDY    68  52  56 SE14      29.96S
$$

NDZ004>008-012>016-024-026-027-054-240900-
NORTHEAST NORTH DAKOTA

CITY           SKY/WX    TMP DP  RH WIND       PRES   REMARKS
GRAND FORKS    CLEAR     62  61  96 SE6       29.96F
GRND FRKS AFB  CLEAR     59  59  99 S5        29.96F
DEVILS LAKE    CLEAR     66  63  90 SE14      29.94F
$$

NDZ022-023-025-028>030-036>039-047>053-240900-
SOUTHEAST NORTH DAKOTA

CITY           SKY/WX    TMP DP  RH WIND       PRES   REMARKS
FARGO          CLEAR     63  60  90 SE7       29.98
JAMESTOWN      CLEAR     60  58  92 S5        29.97S
$$




USA.gov is the U.S. government's official web portal to all federal, state and local government web resources and services.